Location: Bayshore Village Mobile Home Park
(26.6945°N, 81.8642°W)
Time: 21:39:11
(UTC+00:00)

Cosmos 2360 Rocket - Pass Details

Date: 17 June 2021
Orbit: 835 x 843 km, 71.0° (Epoch: 31 July)

Event Time Altitude Azimuth Distance (km) Brightness Sun altitude
Exits shadow 01:03:22 11° 117° (ESE) 2,413 3.9 -8.7°
Maximum altitude 01:05:06 12° 99° (E) 2,310 3.9 -9.1°
Drops below altitude 10° 01:07:08 10° 77° (ENE) 2,452 4.2 -9.5°
Sets 01:11:16 0° 48° (NE) 3,388 5.2 -10.2°
